Погода в Иксане

Южная Корея     35°56′40″N   126°57′24″E
темп.,
°C
ветер,
м/с
пор.,
м/с
влажн.,
%
обл.,
%
осадки,
мм/ч
давл.,
гПа
погр.,
м
18 апреля, вс
вс1800:00+7з5116378 0.0 1017514
03:00+7зсз612725 0.0 1016641
06:00+6сз49775 0.0 1017324
09:00+10сз710535 0.0 10181450
12:00+13сз78400 0.0 10181512
15:00+14зсз79400 0.0 10161252
18:00+11зсз58490 0.0 1017760
21:00+7ююз34780 0.0 102076
19 апреля, пн
пн1900:00+5ю22820 0.0 101925
03:00+5ю22770 0.0 101921
06:00+4ююв22730 0.0 101917
09:00+11ююз23470 0.0 1020391
12:00+17з56300 0.0 10191024
15:00+17з57370 0.0 1018925
18:00+14зюз34520 0.0 1018456
21:00+9юз117462 0.0 102014
20 апреля, вт
вт2000:00+8ююз11770 0.0 102111
03:00+7ююв11762 0.0 102110
06:00+7юв11775 0.0 102110
09:00+14ссз11515 0.0 1022329
12:00+20ссз22325 0.0 1022914
15:00+22сз22305 0.0 10201233
18:00+17з354699 0.0 1020175
21:00+12ю2254100 0.0 102218
21 апреля, ср
ср2100:00+11ююв2255100 0.0 102315
03:00+11в115729 0.0 102310
06:00+11св116737 0.0 102310
09:00+18св11499 0.0 1023285
12:00+24зюз123131 0.0 10221180
15:00+26зюз4527100 0.0 10191521
18:00+18з3646100 0.0 1020262
21:00+15ю1150100 0.0 102211
22 апреля, чт
чт2200:00+15ююв1149100 0.0 102110
03:00+15св1151100 0.0 102011
06:00+14св1255100 0.0 101916
09:00+19в114497 0.0 1019285
12:00+23ююз2527100 0.0 10181333
15:00+22з5535100 0.0 1017676
18:00+18св2351100 0.0 101767
21:00+18всв3346100 0.0 101842